Location: Aytr�
(46.1357°N, 1.1145°W)
Time: 15:35:35
(UTC+00:00)

COSMOS 2428 - Pass Details

Date: 03 March 2021
Orbit: 845 x 858 km, 70.9° (Epoch: 15 April)

Event Time Altitude Azimuth Distance (km) Brightness Sun altitude
Rises 20:59:46 0° 221° (SW) 3,394 6.0 -32.1°
Reaches altitude 10° 21:02:16 10° 226° (SW) 2,463 5.3 -32.5°
Enters shadow 21:07:08 49° 280° (W) 1,087 3.5 -33.3°
Exits shadow 21:13:52 - 20° (NNE) 2,682 5.4 -34.3°
Sets 21:15:52 0° 24° (NNE) 3,424 5.9 -34.6°
